BEL7NX EYVI-EBBR

Flight info

Callsign BEL7NX
Flight time 2h 12m
Altitude 36000
Route UPASI DCT TUNGA DCT SUWGI DCT ELKAR DCT DEKUT DCT GILAS DCT EMBOX DCT TOLGI DCT ABAMI Z717 NEREL/N0391F240 T855 AGENI/N0359F180 T855 BATTY
Aircraft A320/M-DE3FGHIJ1LORVWY/HB1

Departure

Time 2026-05-07 12:47
Airport Vilnius International Airport (EYVI)

Arrival

Time 2026-05-07 14:59
Airport Brussels Airport (EBBR)
Time Latitude Longitude Altitude Speed Heading
2026-05-07 12:25 54.64451 25.28183 637 ft 0 kts 270°
2026-05-07 12:38 54.64451 25.28218 640 ft 4 kts 270°
2026-05-07 12:38 54.64452 25.28255 642 ft 4 kts 248°
2026-05-07 12:38 54.64467 25.28277 643 ft 4 kts 182°
2026-05-07 12:39 54.64479 25.28277 638 ft 3 kts 180°
2026-05-07 12:39 54.64454 25.28277 638 ft 2 kts 180°
2026-05-07 12:39 54.64452 25.28277 638 ft 0 kts 180°
2026-05-07 12:40 54.64429 25.28294 642 ft 8 kts 140°
2026-05-07 12:41 54.64390 25.28359 638 ft 9 kts 147°
2026-05-07 12:41 54.64315 25.28378 640 ft 11 kts 186°
2026-05-07 12:41 54.64300 25.28374 639 ft 11 kts 188°
2026-05-07 12:42 54.64257 25.28363 640 ft 10 kts 189°
2026-05-07 12:42 54.64159 25.28339 640 ft 14 kts 182°
2026-05-07 12:42 54.64118 25.28447 640 ft 10 kts 90°
2026-05-07 12:43 54.64117 25.28590 644 ft 12 kts 90°
2026-05-07 12:43 54.64091 25.28693 645 ft 9 kts 151°
2026-05-07 12:43 54.63981 25.28666 640 ft 24 kts 201°
2026-05-07 12:43 54.63798 25.28536 628 ft 31 kts 201°
2026-05-07 12:44 54.63595 25.28399 616 ft 32 kts 201°
2026-05-07 12:44 54.63383 25.28249 610 ft 34 kts 202°
2026-05-07 12:44 54.63175 25.28106 618 ft 31 kts 201°
2026-05-07 12:44 54.62980 25.27969 605 ft 30 kts 202°
2026-05-07 12:45 54.62786 25.27835 601 ft 28 kts 201°
2026-05-07 12:45 54.62629 25.27727 601 ft 20 kts 203°
2026-05-07 12:45 54.62526 25.27670 603 ft 12 kts 176°
2026-05-07 12:45 54.62465 25.27730 615 ft 10 kts 143°
2026-05-07 12:46 54.62409 25.27807 605 ft 10 kts 134°
2026-05-07 12:46 54.62422 25.27889 615 ft 10 kts 29°
2026-05-07 12:46 54.62616 25.28022 600 ft 65 kts 22°
2026-05-07 12:46 54.63257 25.28469 607 ft 130 kts 22°
2026-05-07 12:47 54.64237 25.29154 836 ft 161 kts 22°
2026-05-07 12:47 54.65274 25.29890 1579 ft 162 kts 19°
2026-05-07 12:47 54.66326 25.30615 2306 ft 165 kts 17°
2026-05-07 12:47 54.67422 25.31361 2690 ft 181 kts 16°
2026-05-07 12:48 54.68671 25.32206 2969 ft 204 kts 19°
2026-05-07 12:48 54.70070 25.33156 3244 ft 228 kts 20°
2026-05-07 12:48 54.71616 25.34219 3630 ft 248 kts 19°
2026-05-07 12:48 54.73244 25.35352 4280 ft 256 kts 19°
2026-05-07 12:49 54.74350 25.36125 4760 ft 261 kts 18°
2026-05-07 12:49 54.76056 25.37319 5482 ft 267 kts 18°
2026-05-07 12:49 54.77811 25.38466 6220 ft 271 kts
2026-05-07 12:49 54.79646 25.38431 6886 ft 262 kts 335°
2026-05-07 12:50 54.81184 25.36833 7392 ft 262 kts 305°
2026-05-07 12:50 54.82067 25.34099 7957 ft 263 kts 286°
2026-05-07 12:50 54.82742 25.31120 8708 ft 268 kts 286°
2026-05-07 12:50 54.83407 25.28079 9500 ft 270 kts 280°
2026-05-07 12:51 54.83558 25.24880 10121 ft 271 kts 259°
2026-05-07 12:51 54.82891 25.21748 10317 ft 289 kts 234°
2026-05-07 12:51 54.81361 25.19348 10563 ft 310 kts 209°
2026-05-07 12:51 54.79335 25.17884 11139 ft 318 kts 204°
2026-05-07 12:52 54.77265 25.16465 11814 ft 322 kts 204°
2026-05-07 12:52 54.75170 25.15024 12496 ft 326 kts 204°
2026-05-07 12:52 54.73048 25.13560 13153 ft 330 kts 204°
2026-05-07 12:52 54.70997 25.11762 13789 ft 332 kts 215°
2026-05-07 12:53 54.69204 25.09240 14386 ft 333 kts 226°
2026-05-07 12:53 54.67562 25.06378 15003 ft 336 kts 226°
2026-05-07 12:53 54.65907 25.03511 15620 ft 338 kts 226°
2026-05-07 12:53 54.64236 25.00633 16263 ft 340 kts 226°
2026-05-07 12:54 54.62551 24.97747 16890 ft 342 kts 226°
2026-05-07 12:54 54.60854 24.94844 17493 ft 345 kts 226°
2026-05-07 12:54 54.59143 24.91922 18090 ft 347 kts 226°
2026-05-07 12:54 54.57422 24.88982 18615 ft 350 kts 226°
2026-05-07 12:55 54.55686 24.86020 19128 ft 352 kts 226°
2026-05-07 12:55 54.53937 24.83037 19653 ft 355 kts 226°
2026-05-07 12:55 54.52177 24.80035 20152 ft 358 kts 226°
2026-05-07 12:55 54.50509 24.76920 20643 ft 360 kts 233°
2026-05-07 12:56 54.49173 24.73244 21154 ft 363 kts 243°
2026-05-07 12:56 54.48217 24.69218 21660 ft 366 kts 248°
2026-05-07 12:56 54.47290 24.65110 22156 ft 368 kts 247°
2026-05-07 12:56 54.46349 24.60992 22641 ft 371 kts 247°
2026-05-07 12:57 54.45396 24.56857 23119 ft 373 kts 247°
2026-05-07 12:57 54.44436 24.52701 23566 ft 375 kts 247°
2026-05-07 12:57 54.43472 24.48517 23946 ft 377 kts 247°
2026-05-07 12:57 54.42503 24.44315 24345 ft 379 kts 247°
2026-05-07 12:58 54.41528 24.40090 24732 ft 381 kts 247°
2026-05-07 12:58 54.40566 24.35933 25114 ft 382 kts 247°
2026-05-07 12:58 54.39584 24.31693 25509 ft 384 kts 247°
2026-05-07 12:58 54.38616 24.27388 25875 ft 386 kts 250°
2026-05-07 12:59 54.37848 24.22979 26208 ft 387 kts 251°
2026-05-07 12:59 54.37075 24.18531 26551 ft 389 kts 251°
2026-05-07 12:59 54.36288 24.14078 26935 ft 390 kts 251°
2026-05-07 12:59 54.35496 24.09625 27305 ft 391 kts 251°
2026-05-07 13:00 54.34701 24.05166 27647 ft 392 kts 251°
2026-05-07 13:00 54.33898 24.00693 27983 ft 393 kts 250°
2026-05-07 13:00 54.33095 23.96208 28305 ft 394 kts 251°
2026-05-07 13:00 54.32293 23.91707 28616 ft 396 kts 251°
2026-05-07 13:01 54.31488 23.87191 28925 ft 397 kts 251°
2026-05-07 13:01 54.30678 23.82666 29212 ft 398 kts 251°
2026-05-07 13:01 54.29863 23.78127 29492 ft 399 kts 251°
2026-05-07 13:01 54.29044 23.73576 29765 ft 401 kts 250°
2026-05-07 13:02 54.28221 23.69014 30019 ft 402 kts 250°
2026-05-07 13:02 54.27394 23.64443 30234 ft 403 kts 250°
2026-05-07 13:02 54.26563 23.59856 30439 ft 404 kts 250°
2026-05-07 13:02 54.25728 23.55263 30669 ft 405 kts 250°
2026-05-07 13:03 54.24890 23.50669 30943 ft 403 kts 250°
2026-05-07 13:03 54.24052 23.46103 31224 ft 402 kts 250°
2026-05-07 13:03 54.23214 23.41554 31571 ft 400 kts 250°
2026-05-07 13:03 54.22216 23.37144 31872 ft 396 kts 242°
2026-05-07 13:04 54.20915 23.33011 32167 ft 394 kts 239°
2026-05-07 13:04 54.19613 23.28974 32456 ft 393 kts 239°
2026-05-07 13:04 54.18296 23.24889 32743 ft 392 kts 239°
2026-05-07 13:04 54.16964 23.20768 33030 ft 391 kts 239°
2026-05-07 13:05 54.15651 23.16706 33313 ft 390 kts 239°
2026-05-07 13:05 54.14341 23.12662 33596 ft 389 kts 239°
2026-05-07 13:05 54.13033 23.08629 33878 ft 388 kts 239°
2026-05-07 13:05 54.11728 23.04611 34114 ft 387 kts 239°
2026-05-07 13:06 54.10438 23.00658 34298 ft 388 kts 239°
2026-05-07 13:06 54.09123 22.96630 34499 ft 388 kts 239°
2026-05-07 13:06 54.07812 22.92594 34629 ft 390 kts 241°
2026-05-07 13:06 54.06762 22.88319 34785 ft 394 kts 250°
2026-05-07 13:07 54.06086 22.83778 34904 ft 397 kts 253°
2026-05-07 13:07 54.05439 22.79203 34927 ft 398 kts 253°
2026-05-07 13:07 54.04101 22.70047 34965 ft 397 kts 252°
2026-05-07 13:08 54.02765 22.60987 34937 ft 397 kts 252°
2026-05-07 13:08 54.01431 22.51880 34937 ft 397 kts 252°
2026-05-07 13:09 54.00095 22.42784 34939 ft 397 kts 252°
2026-05-07 13:09 53.98744 22.33686 34939 ft 397 kts 252°
2026-05-07 13:10 53.97383 22.24601 34940 ft 397 kts 252°
2026-05-07 13:10 53.96022 22.15499 34942 ft 397 kts 252°
2026-05-07 13:11 53.94657 22.06426 34942 ft 397 kts 252°
2026-05-07 13:11 53.93281 21.97357 34941 ft 396 kts 251°
2026-05-07 13:12 53.91901 21.88304 34948 ft 396 kts 251°
2026-05-07 13:12 53.90512 21.79259 34947 ft 396 kts 251°
2026-05-07 13:13 53.89116 21.70219 34969 ft 397 kts 251°
2026-05-07 13:13 53.88414 21.65687 35173 ft 397 kts 251°
2026-05-07 13:13 53.87711 21.61163 35343 ft 397 kts 251°
2026-05-07 13:14 53.87007 21.56630 35502 ft 398 kts 251°
2026-05-07 13:14 53.86300 21.52093 35649 ft 399 kts 251°
2026-05-07 13:14 53.85590 21.47553 35801 ft 399 kts 251°
2026-05-07 13:14 53.84874 21.43013 35924 ft 400 kts 251°
2026-05-07 13:15 53.83432 21.33896 35963 ft 401 kts 251°
2026-05-07 13:15 53.81995 21.24832 35964 ft 401 kts 251°
2026-05-07 13:16 53.80539 21.15717 35967 ft 401 kts 251°
2026-05-07 13:16 53.79086 21.06591 35968 ft 401 kts 251°
2026-05-07 13:17 53.77618 20.97484 35970 ft 401 kts 251°
2026-05-07 13:17 53.76139 20.88382 35971 ft 401 kts 251°
2026-05-07 13:18 53.74655 20.79297 35973 ft 401 kts 251°
2026-05-07 13:18 53.73165 20.70208 35973 ft 401 kts 251°
2026-05-07 13:19 53.71666 20.61118 35961 ft 401 kts 251°
2026-05-07 13:19 53.70163 20.52048 35960 ft 401 kts 251°
2026-05-07 13:20 53.68701 20.42942 35966 ft 402 kts 252°
2026-05-07 13:20 53.67343 20.33851 35968 ft 402 kts 252°
2026-05-07 13:21 53.65977 20.24703 35973 ft 402 kts 252°
2026-05-07 13:21 53.64573 20.15577 35973 ft 402 kts 251°
2026-05-07 13:22 53.63152 20.06459 36006 ft 403 kts 252°
2026-05-07 13:22 53.61727 19.97331 35995 ft 403 kts 252°
2026-05-07 13:23 53.60297 19.88202 35990 ft 403 kts 252°
2026-05-07 13:23 53.58862 19.79072 35985 ft 403 kts 251°
2026-05-07 13:24 53.57414 19.69953 35985 ft 403 kts 251°
2026-05-07 13:24 53.55957 19.60832 35992 ft 404 kts 251°
2026-05-07 13:25 53.54494 19.51719 35992 ft 404 kts 251°
2026-05-07 13:25 53.53021 19.42615 36009 ft 404 kts 251°
2026-05-07 13:26 53.51542 19.33498 36004 ft 404 kts 251°
2026-05-07 13:26 53.50060 19.24379 35999 ft 404 kts 251°
2026-05-07 13:27 53.48580 19.15333 36003 ft 404 kts 251°
2026-05-07 13:27 53.47078 19.06222 35996 ft 404 kts 251°
2026-05-07 13:28 53.45569 18.97138 35997 ft 404 kts 251°
2026-05-07 13:28 53.44060 18.88044 36035 ft 404 kts 251°
2026-05-07 13:29 53.42546 18.78946 36020 ft 406 kts 250°
2026-05-07 13:29 53.41013 18.69829 36001 ft 406 kts 250°
2026-05-07 13:30 53.39480 18.60775 36004 ft 407 kts 250°
2026-05-07 13:30 53.37923 18.51661 36000 ft 407 kts 250°
2026-05-07 13:31 53.36368 18.42549 36006 ft 407 kts 250°
2026-05-07 13:31 53.34809 18.33430 36005 ft 407 kts 250°
2026-05-07 13:32 53.33238 18.24311 36025 ft 408 kts 250°
2026-05-07 13:32 53.31649 18.15189 36010 ft 409 kts 250°
2026-05-07 13:33 53.30049 18.06062 36008 ft 410 kts 250°
2026-05-07 13:33 53.28446 17.96912 36009 ft 410 kts 250°
2026-05-07 13:34 53.26305 17.84731 36011 ft 411 kts 250°
2026-05-07 13:35 53.24418 17.74092 36005 ft 411 kts 250°
2026-05-07 13:35 53.23049 17.66437 36007 ft 411 kts 250°
2026-05-07 13:36 53.21407 17.57288 36016 ft 412 kts 250°
2026-05-07 13:36 53.19758 17.48121 36001 ft 413 kts 250°
2026-05-07 13:37 53.18096 17.38934 36008 ft 414 kts 250°
2026-05-07 13:37 53.16426 17.29749 36012 ft 414 kts 249°
2026-05-07 13:38 53.14755 17.20623 36012 ft 414 kts 249°
2026-05-07 13:38 53.13065 17.11442 36015 ft 415 kts 249°
2026-05-07 13:39 53.11368 17.02264 36040 ft 415 kts 250°
2026-05-07 13:39 53.09693 16.93035 36014 ft 417 kts 250°
2026-05-07 13:40 53.08027 16.83770 36012 ft 418 kts 250°
2026-05-07 13:40 53.06337 16.74497 36012 ft 419 kts 250°
2026-05-07 13:41 53.04626 16.65229 36008 ft 420 kts 249°
2026-05-07 13:41 53.02909 16.55957 36012 ft 420 kts 250°
2026-05-07 13:42 53.01191 16.46676 36016 ft 420 kts 249°
2026-05-07 13:42 52.99460 16.37391 36025 ft 422 kts 249°
2026-05-07 13:43 52.97721 16.28148 36016 ft 423 kts 249°
2026-05-07 13:43 52.95963 16.18831 36018 ft 423 kts 249°
2026-05-07 13:44 52.94196 16.09497 36017 ft 424 kts 249°
2026-05-07 13:44 52.92426 16.00160 36019 ft 424 kts 249°
2026-05-07 13:45 52.90647 15.90841 36022 ft 425 kts 249°
2026-05-07 13:45 52.88855 15.81519 36036 ft 425 kts 249°
2026-05-07 13:46 52.87044 15.72174 36026 ft 426 kts 249°
2026-05-07 13:46 52.85229 15.62823 36024 ft 427 kts 249°
2026-05-07 13:47 52.83399 15.53474 36024 ft 427 kts 249°
2026-05-07 13:47 52.81570 15.44116 36028 ft 428 kts 249°
2026-05-07 13:48 52.79735 15.34765 36027 ft 428 kts 249°
2026-05-07 13:48 52.77887 15.25415 36045 ft 428 kts 249°
2026-05-07 13:49 52.76039 15.16135 36037 ft 429 kts 249°
2026-05-07 13:49 52.74167 15.06773 36032 ft 429 kts 249°
2026-05-07 13:50 52.72291 14.97408 36032 ft 430 kts 249°
2026-05-07 13:50 52.70404 14.88054 36033 ft 430 kts 249°
2026-05-07 13:51 52.68502 14.78702 36036 ft 430 kts 249°
2026-05-07 13:51 52.66599 14.69351 36038 ft 430 kts 249°
2026-05-07 13:52 52.64688 14.60000 36035 ft 430 kts 249°
2026-05-07 13:52 52.62779 14.50666 36043 ft 431 kts 250°
2026-05-07 13:53 52.61129 14.41168 36043 ft 432 kts 252°
2026-05-07 13:53 52.59635 14.31592 36045 ft 432 kts 252°
2026-05-07 13:54 52.58093 14.22039 36046 ft 432 kts 252°
2026-05-07 13:54 52.56505 14.12587 36045 ft 432 kts 251°
2026-05-07 13:55 52.54881 14.03090 36058 ft 432 kts 252°
2026-05-07 13:55 52.53250 13.93595 36051 ft 432 kts 252°
2026-05-07 13:56 52.51614 13.84083 36048 ft 433 kts 252°
2026-05-07 13:56 52.50998 13.80504 36048 ft 433 kts 252°
2026-05-07 13:57 52.49364 13.70990 36051 ft 433 kts 252°
2026-05-07 13:57 52.47719 13.61490 36052 ft 433 kts 252°
2026-05-07 13:58 52.46059 13.51996 36061 ft 433 kts 252°
2026-05-07 13:58 52.44392 13.42487 36049 ft 434 kts 252°
2026-05-07 13:59 52.42709 13.32973 36046 ft 435 kts 252°
2026-05-07 13:59 52.41021 13.23448 36034 ft 435 kts 252°
2026-05-07 14:00 52.39329 13.13926 36040 ft 435 kts 252°
2026-05-07 14:00 52.37618 13.04405 36045 ft 435 kts 252°
2026-05-07 14:01 52.35913 12.94954 36043 ft 436 kts 252°
2026-05-07 14:01 52.34189 12.85431 36032 ft 437 kts 252°
2026-05-07 14:02 52.32453 12.75906 36024 ft 438 kts 252°
2026-05-07 14:02 52.30705 12.66361 36034 ft 438 kts 252°
2026-05-07 14:03 52.28955 12.56823 36031 ft 438 kts 252°
2026-05-07 14:03 52.27194 12.47291 36034 ft 438 kts 252°
2026-05-07 14:04 52.25423 12.37768 36043 ft 439 kts 252°
2026-05-07 14:04 52.23640 12.28234 36036 ft 439 kts 252°
2026-05-07 14:05 52.21853 12.18691 36038 ft 440 kts 252°
2026-05-07 14:05 52.20057 12.09160 36041 ft 440 kts 252°
2026-05-07 14:06 52.18253 11.99644 36043 ft 440 kts 252°
2026-05-07 14:06 52.16442 11.90176 36045 ft 440 kts 252°
2026-05-07 14:07 52.14615 11.80652 36045 ft 440 kts 252°
2026-05-07 14:07 52.12788 11.71137 36056 ft 441 kts 252°
2026-05-07 14:08 52.10944 11.61615 36057 ft 441 kts 252°
2026-05-07 14:08 52.09092 11.52112 36056 ft 441 kts 251°
2026-05-07 14:09 52.07236 11.42615 36065 ft 441 kts 251°
2026-05-07 14:09 52.05513 11.33058 36067 ft 441 kts 258°
2026-05-07 14:10 52.04371 11.23267 36069 ft 441 kts 258°
2026-05-07 14:10 52.03148 11.13506 36066 ft 441 kts 256°
2026-05-07 14:11 52.01598 11.03873 36066 ft 441 kts 253°
2026-05-07 14:11 51.99930 10.94309 36068 ft 441 kts 253°
2026-05-07 14:12 51.98310 10.84781 36074 ft 440 kts 254°
2026-05-07 14:12 51.96725 10.75191 36080 ft 440 kts 255°
2026-05-07 14:13 51.95146 10.65618 36084 ft 439 kts 255°
2026-05-07 14:13 51.93549 10.56073 36073 ft 439 kts 254°
2026-05-07 14:14 51.91941 10.46528 36082 ft 438 kts 254°
2026-05-07 14:14 51.90331 10.37010 36072 ft 438 kts 254°
2026-05-07 14:15 51.88711 10.27511 36068 ft 438 kts 254°
2026-05-07 14:15 51.87085 10.18008 36064 ft 438 kts 254°
2026-05-07 14:16 51.85447 10.08509 36056 ft 438 kts 254°
2026-05-07 14:16 51.83813 9.99079 36064 ft 438 kts 254°
2026-05-07 14:17 51.82165 9.89595 36070 ft 438 kts 253°
2026-05-07 14:17 51.80507 9.80110 36071 ft 438 kts 253°
2026-05-07 14:18 51.78843 9.70631 36076 ft 438 kts 254°
2026-05-07 14:18 51.77170 9.61157 36070 ft 438 kts 254°
2026-05-07 14:19 51.75488 9.51692 36066 ft 438 kts 254°
2026-05-07 14:19 51.73807 9.42299 36061 ft 439 kts 253°
2026-05-07 14:20 51.72111 9.32845 36063 ft 439 kts 253°
2026-05-07 14:20 51.70411 9.23404 36060 ft 439 kts 253°
2026-05-07 14:21 51.68697 9.13955 36064 ft 439 kts 253°
2026-05-07 14:21 51.67256 9.06058 36074 ft 439 kts 253°
2026-05-07 14:22 51.65250 8.95115 36079 ft 438 kts 253°
2026-05-07 14:22 51.63797 8.87227 36084 ft 438 kts 253°
2026-05-07 14:23 51.62057 8.77818 36084 ft 438 kts 253°
2026-05-07 14:23 51.60317 8.68480 36088 ft 438 kts 253°
2026-05-07 14:24 51.58559 8.59096 36088 ft 438 kts 253°
2026-05-07 14:24 51.56795 8.49721 36085 ft 438 kts 253°
2026-05-07 14:25 51.55034 8.40357 36068 ft 438 kts 253°
2026-05-07 14:25 51.53266 8.30994 36069 ft 437 kts 253°
2026-05-07 14:26 51.51494 8.21643 36070 ft 437 kts 253°
2026-05-07 14:26 51.49711 8.12308 36070 ft 437 kts 253°
2026-05-07 14:27 51.47912 8.02981 36076 ft 437 kts 253°
2026-05-07 14:27 51.46101 7.93661 36089 ft 437 kts 253°
2026-05-07 14:28 51.44301 7.84412 36086 ft 437 kts 253°
2026-05-07 14:28 51.42468 7.75074 36078 ft 436 kts 252°
2026-05-07 14:29 51.40652 7.65862 36076 ft 436 kts 252°
2026-05-07 14:29 51.38822 7.56592 36077 ft 436 kts 253°
2026-05-07 14:30 51.36991 7.47341 36056 ft 436 kts 252°
2026-05-07 14:30 51.35145 7.38076 36062 ft 436 kts 252°
2026-05-07 14:31 51.33296 7.28842 36049 ft 436 kts 252°
2026-05-07 14:31 51.31441 7.19605 36050 ft 436 kts 252°
2026-05-07 14:32 51.29575 7.10386 36064 ft 436 kts 252°
2026-05-07 14:32 51.27706 7.01181 36062 ft 435 kts 252°
2026-05-07 14:33 51.25829 6.91995 36063 ft 435 kts 252°
2026-05-07 14:33 51.23950 6.82823 36060 ft 435 kts 252°
2026-05-07 14:34 51.22061 6.73645 36065 ft 435 kts 252°
2026-05-07 14:34 51.20164 6.64479 36058 ft 435 kts 252°
2026-05-07 14:35 51.18261 6.55331 36068 ft 434 kts 251°
2026-05-07 14:35 51.17320 6.50826 35903 ft 434 kts 251°
2026-05-07 14:35 51.16366 6.46269 35658 ft 433 kts 251°
2026-05-07 14:35 51.15413 6.41721 35056 ft 434 kts 252°
2026-05-07 14:36 51.14455 6.37143 34235 ft 437 kts 252°
2026-05-07 14:36 51.13490 6.32539 33272 ft 439 kts 252°
2026-05-07 14:36 51.12529 6.27968 32764 ft 431 kts 252°
2026-05-07 14:36 51.11580 6.23473 32182 ft 426 kts 252°
2026-05-07 14:37 51.10638 6.19025 31639 ft 422 kts 252°
2026-05-07 14:37 51.08795 6.10348 30559 ft 414 kts 251°
2026-05-07 14:37 51.07873 6.06036 30004 ft 410 kts 251°
2026-05-07 14:38 51.06956 6.01762 29441 ft 406 kts 251°
2026-05-07 14:38 51.06051 5.97543 28929 ft 400 kts 251°
2026-05-07 14:38 51.05157 5.93378 28412 ft 396 kts 251°
2026-05-07 14:38 51.04275 5.89259 27911 ft 392 kts 251°
2026-05-07 14:39 51.03401 5.85185 27416 ft 387 kts 251°
2026-05-07 14:39 51.02532 5.81155 26935 ft 384 kts 251°
2026-05-07 14:39 51.01670 5.77171 26461 ft 380 kts 251°
2026-05-07 14:39 51.00813 5.73222 26008 ft 376 kts 251°
2026-05-07 14:40 50.99961 5.69309 25556 ft 374 kts 251°
2026-05-07 14:40 50.99115 5.65424 25108 ft 372 kts 251°
2026-05-07 14:40 50.98273 5.61559 24687 ft 369 kts 251°
2026-05-07 14:40 50.97434 5.57720 24251 ft 367 kts 251°
2026-05-07 14:41 50.96599 5.53909 23813 ft 364 kts 251°
2026-05-07 14:41 50.95781 5.50181 23347 ft 362 kts 251°
2026-05-07 14:41 50.94958 5.46427 22910 ft 358 kts 251°
2026-05-07 14:41 50.94145 5.42712 22489 ft 354 kts 251°
2026-05-07 14:42 50.93340 5.39045 22051 ft 351 kts 251°
2026-05-07 14:42 50.92540 5.35407 21619 ft 347 kts 251°
2026-05-07 14:42 50.91746 5.31812 21193 ft 344 kts 251°
2026-05-07 14:42 50.90954 5.28248 20758 ft 342 kts 250°
2026-05-07 14:43 50.90163 5.24708 20328 ft 340 kts 250°
2026-05-07 14:43 50.89377 5.21188 19894 ft 338 kts 251°
2026-05-07 14:43 50.88595 5.17677 19454 ft 337 kts 251°
2026-05-07 14:43 50.87983 5.14103 19024 ft 336 kts 261°
2026-05-07 14:44 50.87812 5.10428 18583 ft 335 kts 271°
2026-05-07 14:44 50.87971 5.06751 18124 ft 336 kts 274°
2026-05-07 14:44 50.88141 5.03065 17672 ft 335 kts 274°
2026-05-07 14:44 50.88304 4.99395 17242 ft 333 kts 274°
2026-05-07 14:45 50.88462 4.95749 16817 ft 331 kts 273°
2026-05-07 14:45 50.88618 4.92128 16409 ft 329 kts 273°
2026-05-07 14:45 50.88771 4.88561 15993 ft 327 kts 273°
2026-05-07 14:45 50.88926 4.84973 15580 ft 326 kts 273°
2026-05-07 14:46 50.89082 4.81354 15163 ft 325 kts 273°
2026-05-07 14:46 50.89233 4.77792 14748 ft 324 kts 273°
2026-05-07 14:46 50.89383 4.74238 14336 ft 323 kts 273°
2026-05-07 14:46 50.89528 4.70743 13927 ft 322 kts 273°
2026-05-07 14:47 50.89676 4.67199 13482 ft 321 kts 273°
2026-05-07 14:47 50.89824 4.63677 13054 ft 319 kts 273°
2026-05-07 14:47 50.89967 4.60176 12637 ft 318 kts 273°
2026-05-07 14:47 50.90109 4.56700 12218 ft 316 kts 273°
2026-05-07 14:48 50.90256 4.53242 11793 ft 314 kts 274°
2026-05-07 14:48 50.90496 4.49811 11369 ft 313 kts 276°
2026-05-07 14:48 50.90800 4.46406 10933 ft 312 kts 277°
2026-05-07 14:48 50.91130 4.43016 10507 ft 310 kts 277°
2026-05-07 14:49 50.91459 4.39662 10268 ft 303 kts 277°
2026-05-07 14:49 50.91770 4.36426 10132 ft 292 kts 277°
2026-05-07 14:49 50.92061 4.33276 9903 ft 286 kts 277°
2026-05-07 14:49 50.92339 4.30193 9631 ft 280 kts 277°
2026-05-07 14:50 50.92604 4.27208 9368 ft 274 kts 276°
2026-05-07 14:50 50.92864 4.24231 9093 ft 269 kts 276°
2026-05-07 14:50 50.93116 4.21361 8771 ft 256 kts 276°
2026-05-07 14:50 50.93298 4.18627 8457 ft 242 kts 268°
2026-05-07 14:51 50.93072 4.16068 8146 ft 229 kts 252°
2026-05-07 14:51 50.92448 4.13794 7845 ft 222 kts 237°
2026-05-07 14:51 50.91495 4.11906 7529 ft 216 kts 223°
2026-05-07 14:51 50.90361 4.10443 7270 ft 205 kts 218°
2026-05-07 14:52 50.89187 4.09276 6958 ft 196 kts 203°
2026-05-07 14:52 50.87885 4.08714 6648 ft 194 kts 186°
2026-05-07 14:52 50.86539 4.08765 6320 ft 194 kts 170°
2026-05-07 14:52 50.85259 4.09405 5982 ft 193 kts 155°
2026-05-07 14:53 50.84035 4.10293 5638 ft 193 kts 155°
2026-05-07 14:53 50.82812 4.11171 5301 ft 193 kts 155°
2026-05-07 14:53 50.81745 4.12409 4969 ft 191 kts 127°
2026-05-07 14:53 50.81244 4.14318 4631 ft 189 kts 95°
2026-05-07 14:54 50.81430 4.16325 4293 ft 188 kts 67°
2026-05-07 14:54 50.81981 4.18228 3968 ft 188 kts 65°
2026-05-07 14:54 50.82516 4.20081 3676 ft 187 kts 65°
2026-05-07 14:54 50.83054 4.21947 3408 ft 186 kts 65°
2026-05-07 14:55 50.83589 4.23808 3133 ft 186 kts 65°
2026-05-07 14:55 50.84123 4.25664 2862 ft 185 kts 65°
2026-05-07 14:55 50.84660 4.27506 2621 ft 181 kts 65°
2026-05-07 14:55 50.85169 4.29246 2387 ft 170 kts 65°
2026-05-07 14:56 50.85655 4.30911 2172 ft 165 kts 65°
2026-05-07 14:56 50.86133 4.32548 1974 ft 162 kts 65°
2026-05-07 14:56 50.86596 4.34135 1730 ft 154 kts 65°
2026-05-07 14:56 50.87029 4.35628 1477 ft 144 kts 65°
2026-05-07 14:57 50.87445 4.37052 1297 ft 141 kts 65°
2026-05-07 14:57 50.87854 4.38452 1101 ft 139 kts 65°
2026-05-07 14:57 50.88257 4.39847 942 ft 139 kts 65°
2026-05-07 14:57 50.88654 4.41242 779 ft 139 kts 66°
2026-05-07 14:58 50.89048 4.42633 620 ft 139 kts 65°
2026-05-07 14:58 50.89446 4.44021 417 ft 138 kts 65°
2026-05-07 14:58 50.89843 4.45396 261 ft 138 kts 65°
2026-05-07 14:58 50.90234 4.46751 129 ft 125 kts 65°
2026-05-07 14:59 50.90531 4.47778 119 ft 78 kts 65°
2026-05-07 14:59 50.90684 4.48312 119 ft 32 kts 66°
2026-05-07 14:59 50.90772 4.48615 117 ft 30 kts 65°
2026-05-07 14:59 50.90858 4.48910 119 ft 30 kts 65°
2026-05-07 15:00 50.90942 4.49207 120 ft 28 kts 66°
2026-05-07 15:00 50.90980 4.49498 120 ft 27 kts 91°
2026-05-07 15:00 50.90940 4.49680 122 ft 12 kts 150°
2026-05-07 15:00 50.90867 4.49659 123 ft 13 kts 198°
2026-05-07 15:01 50.90735 4.49592 124 ft 26 kts 196°
2026-05-07 15:01 50.90548 4.49513 124 ft 26 kts 195°
2026-05-07 15:01 50.90417 4.49377 120 ft 24 kts 246°
2026-05-07 15:01 50.90353 4.49149 124 ft 21 kts 245°
2026-05-07 15:02 50.90294 4.48948 124 ft 16 kts 245°
2026-05-07 15:02 50.90250 4.48797 122 ft 14 kts 245°
2026-05-07 15:02 50.90211 4.48661 123 ft 13 kts 245°
2026-05-07 15:02 50.90177 4.48540 121 ft 11 kts 246°
2026-05-07 15:03 50.90165 4.48460 122 ft 6 kts 298°
2026-05-07 15:03 50.90205 4.48424 118 ft 7 kts 335°
2026-05-07 15:03 50.90228 4.48407 120 ft 0 kts 335°
2026-05-07 15:03 50.90230 4.48406 120 ft 0 kts 335°